[[{"header":{"parameterUnit":"m.s-1","parameterCategory":1,"la1":30.2991,"la2":30.254,"lo1":-89.0895,"lo2":-89.0444,"dy":0.0017,"dx":0.0017,"nx":28,"ny":28,"refTime":"2023-07-30T21:00:00:Z","depth":0,"parameterNumber":2,"parameterNumberName":"U-component_of_WINDS"},"data":[0,0,0,0,0,0,0,0,0,0,0,0,0,0,0,0,0,0,0,0,0,0,0,0,0,0,0,0,0,0,0,0,0,0,0,0,0,0,0,0,0,0,0,0,0,0,0,0,0,0,0,0,0,0,0,0,0,0,1.4736,1.4738,0,1.4875,1.4877,1.4878,1.49,1.4898,1.4897,1.4896,1.5039,1.5044,1.5049,0,0,0,0,0,0,0,0,0,0,0,0,0,1.449,1.4495,1.4736,1.4738,1.474,1.4875,1.4877,1.4879,1.49,1.4898,1.4897,1.4896,1.5038,1.5044,1.5049,0,0,0,0,0,0,0,0,0,0,0,0,0,1.461,1.4496,1.4736,1.4767,1.4771,1.4875,1.4877,1.4879,1.49,1.4898,1.4897,1.4895,1.5036,1.5043,1.505,1.5134,0,0,1.5073,1.5076,0,0,0,0,0,0,0,0,1.4603,1.4619,1.476,1.4765,1.477,1.4868,1.4843,1.4965,1.4901,1.4851,1.4896,1.4894,1.4984,1.4996,1.5026,1.514,1.5146,1.5074,1.5078,1.5081,1.5084,0,0,0,0,0,0,0,1.4595,1.4613,1.4791,1.4762,1.4768,1.4774,1.4789,1.4866,1.4926,1.4855,1.4857,1.4873,1.4986,1.5018,1.5029,1.5148,1.5074,1.508,1.5085,1.5088,1.5338,1.534,0,0,0,0,0,0,1.4581,1.4606,1.4787,1.4795,1.468,1.478,1.4796,1.4838,1.4926,1.4937,1.4875,1.4874,1.5007,1.502,1.5034,1.5137,1.5081,1.5088,1.5093,1.5336,1.5338,1.5341,0,0,0,0,0,0,1.4575,1.4597,1.4781,1.4701,1.4725,1.4786,1.4833,1.4842,1.4874,1.494,1.4951,1.4897,1.5006,1.5024,1.5108,1.5142,1.5092,1.5099,1.5333,1.5336,1.5339,1.5343,0,0,0,0,0,0,1.4568,1.4595,1.4627,1.4702,1.4729,1.4853,1.4835,1.4846,1.4887,1.4887,1.4964,1.4974,1.5006,1.5097,1.5116,1.5152,1.5104,1.533,1.5335,1.5338,1.534,1.5346,1.5351,0,0,0,0,0,1.4559,1.4623,1.4628,1.465,1.4771,1.4855,1.4871,1.4905,1.489,1.4923,1.4965,1.4972,1.5136,1.5106,1.5127,1.5165,1.5328,1.5333,1.5338,1.5338,1.5345,1.5351,0,0,0,0,0,0,1.455,1.4633,1.464,1.473,1.4785,1.4858,1.4901,1.4911,1.4972,1.497,1.501,1.5027,1.511,1.5146,1.5111,1.525,1.5231,1.524,1.5223,1.5231,1.5236,1.5225,1.5111,0,0,0,0,0,1.4559,1.462,1.4689,1.4761,1.4788,1.484,1.4878,1.4899,1.4958,1.4982,1.503,1.5088,1.5152,1.5193,1.5256,1.5346,1.5363,1.5383,1.5388,1.5392,1.54,1.5449,1.5459,1.5357,1.5357,1.5357,0,0,1.4577,1.4629,1.4666,1.4761,1.4806,1.4868,1.4859,1.4926,1.4973,1.4992,1.5075,1.5112,1.5179,1.5266,1.5307,1.5299,1.5432,1.5398,1.5401,1.5407,1.5455,1.5465,1.5473,1.536,1.5359,1.5359,0,0,1.4641,1.4687,1.4752,1.4798,1.4866,1.49,1.4915,1.4987,1.5013,1.5096,1.5112,1.5169,1.5279,1.5325,1.5363,1.5445,1.5454,1.5465,1.5493,1.5541,1.5549,1.5556,1.5585,1.5594,1.5472,1.5472,1.5472,0,1.4655,1.4749,1.4784,1.485,1.4891,1.4911,1.4977,1.502,1.5106,1.5134,1.5124,1.5262,1.5308,1.5406,1.5426,1.5457,1.5475,1.5456,1.5545,1.5552,1.556,1.5587,1.5598,1.5473,1.5473,1.5473,1.5472,0,1.4762,1.4827,1.4872,1.4953,1.5,1.5065,1.511,1.5153,1.517,1.5205,1.529,1.5346,1.542,1.5445,1.5463,1.5546,1.5539,1.5536,1.5517,1.557,1.5596,1.5607,1.5474,1.5473,1.5473,1.5473,0,0,1.4824,1.4924,1.494,1.4977,1.5054,1.5106,1.5172,1.5244,1.528,1.5339,1.5395,1.5488,1.5485,1.5529,1.5552,1.5594,1.5655,1.5586,1.5589,1.5597,1.5749,1.575,1.5762,1.5661,1.5663,1.5665,1.5743,0,1.4897,1.5016,1.5049,1.515,1.521,1.523,1.5288,1.5342,1.5376,1.5432,1.547,1.5535,1.5527,1.5554,1.5596,1.5638,1.5686,1.5633,1.5714,1.5717,1.5696,1.5776,1.5777,1.5848,1.5754,1.5756,1.5757,0,1.4998,1.5058,1.5164,1.5233,1.526,1.5311,1.538,1.5433,1.5495,1.5517,1.5565,1.5584,1.5655,1.5632,1.5729,1.5693,1.5728,1.5754,1.5757,1.5766,1.5739,1.5786,1.5871,1.5882,1.5774,1.5772,1.5771,0,1.5032,1.5139,1.5217,1.5248,1.533,1.5366,1.5402,1.5461,1.5503,1.5563,1.559,1.5658,1.5695,1.5747,1.5784,1.5765,1.5878,1.5859,1.5898,1.5897,1.5921,1.5919,1.6013,1.5945,1.5944,1.5944,1.5944,0,1.511,1.5174,1.5233,1.528,1.5352,1.539,1.5461,1.5498,1.555,1.5605,1.5627,1.5679,1.5725,1.5783,1.5813,1.5888,1.5905,1.5925,1.5932,1.5923,1.592,1.5946,1.5942,1.5947,1.5946,1.5946,1.5945,0,1.516,1.5202,1.5287,1.5358,1.5377,1.5427,1.5488,1.5535,1.557,1.5639,1.5658,1.5713,1.5782,1.5824,1.5912,1.5932,1.6015,1.6021,1.5994,1.5997,1.6034,1.603,1.6148,1.6165,1.6085,1.6086,1.6086,0,1.5206,1.5255,1.5332,1.537,1.5406,1.5467,1.5509,1.5549,1.5592,1.5665,1.5703,1.5773,1.5831,1.594,1.5988,1.6055,1.6062,1.6099,1.6073,1.6061,1.6062,1.6059,1.6064,1.6103,1.6104,1.6104,1.6105,0,1.5284,1.5302,1.5361,1.5428,1.5477,1.5532,1.5586,1.5617,1.5665,1.5712,1.5782,1.5827,1.5917,1.5986,1.6057,1.6095,1.6108,1.6113,1.6125,1.6116,1.6098,1.6108,1.6006,1.611,1.6109,1.6109,1.6109,1.6108,1.5333,1.5378,1.5438,1.5503,1.5548,1.5599,1.5646,1.5687,1.5746,1.5821,1.5841,1.5914,1.5974,1.6071,1.611,1.6169,1.6163,1.6182,1.6186,1.619,1.619,1.6089,1.6182,1.6182,1.6182,1.6182,1.6182,0,1.5411,1.5451,1.5511,1.5586,1.5637,1.5645,1.5705,1.5748,1.5812,1.5867,1.5923,1.6004,1.6071,1.6124,1.6194,1.623,1.6238,1.6247,1.6244,1.6253,1.6191,1.6173,1.6239,1.6239,1.6239,1.6239,1.6239,1.6239,1.5458,1.5534,1.5559,1.5657,1.5697,1.5769,1.5803,1.5849,1.5893,1.5982,1.6038,1.6072,1.6126,1.6199,1.6261,1.6275,1.6299,1.6307,1.6322,1.6264,1.6257,1.6251,1.6234,1.6312,1.6312,1.6379,1.6379,1.638]},{"header":{"parameterUnit":"m.s-1","parameterCategory":1,"la1":30.2991,"la2":30.254,"lo1":-89.0895,"lo2":-89.0444,"dy":0.0017,"dx":0.0017,"nx":28,"ny":28,"refTime":"2023-07-30T21:00:00:Z","depth":0,"parameterNumber":3,"parameterNumberName":"V-component_of_WINDS"},"data":[0,0,0,0,0,0,0,0,0,0,0,0,0,0,0,0,0,0,0,0,0,0,0,0,0,0,0,0,0,0,0,0,0,0,0,0,0,0,0,0,0,0,0,0,0,0,0,0,0,0,0,0,0,0,0,0,0,0,2.0921,2.092,0,2.0845,2.0844,2.0843,2.0756,2.0755,2.0753,2.0752,2.0671,2.067,2.0669,0,0,0,0,0,0,0,0,0,0,0,0,0,2.0988,2.0987,2.0921,2.092,2.0919,2.0845,2.0844,2.0843,2.0756,2.0755,2.0753,2.0752,2.0672,2.0671,2.0669,0,0,0,0,0,0,0,0,0,0,0,0,0,2.094,2.0987,2.0921,2.0867,2.0861,2.0845,2.0844,2.0843,2.0757,2.0755,2.0753,2.0751,2.0672,2.0671,2.0669,2.0699,0,0,2.0665,2.0664,0,0,0,0,0,0,0,0,2.0943,2.0938,2.0876,2.0871,2.0864,2.0808,2.0838,2.0795,2.0757,2.0796,2.0752,2.075,2.0718,2.0713,2.0703,2.0696,2.0692,2.0665,2.0664,2.0663,2.0663,0,0,0,0,0,0,0,2.0946,2.094,2.0891,2.0875,2.0868,2.0845,2.0836,2.0829,2.0769,2.0793,2.0786,2.0779,2.0715,2.0704,2.07,2.0691,2.0665,2.0664,2.0663,2.0662,2.0704,2.0705,0,0,0,0,0,0,2.0958,2.0944,2.0893,2.0888,2.09,2.0846,2.0836,2.0828,2.0769,2.0758,2.078,2.0775,2.0708,2.0702,2.0697,2.0728,2.0663,2.0662,2.0661,2.0702,2.0704,2.0706,0,0,0,0,0,0,2.096,2.0954,2.0896,2.0914,2.0905,2.0847,2.0839,2.0828,2.0817,2.076,2.0748,2.0781,2.0706,2.0699,2.0699,2.0724,2.0661,2.066,2.0699,2.0702,2.0705,2.079,0,0,0,0,0,0,2.0962,2.0956,2.0967,2.0915,2.0905,2.0901,2.084,2.0828,2.0815,2.0807,2.0757,2.0747,2.0704,2.0702,2.0698,2.0721,2.0659,2.0697,2.0701,2.0704,2.0785,2.0796,2.0805,0,0,0,0,0,2.0965,2.0994,2.0968,2.0963,2.0918,2.0903,2.0897,2.0847,2.0818,2.0828,2.0791,2.0749,2.0722,2.0703,2.0698,2.072,2.0695,2.07,2.0704,2.0781,2.0794,2.0805,0,0,0,0,0,0,2.1049,2.0986,2.0957,2.097,2.0943,2.0888,2.09,2.0863,2.0843,2.0836,2.0775,2.0764,2.0772,2.0746,2.0726,2.0746,2.0702,2.0706,2.0762,2.0774,2.0784,2.079,2.0658,0,0,0,0,0,2.107,2.1064,2.1008,2.1025,2.1013,2.0959,2.0951,2.0915,2.0884,2.0871,2.0834,2.0805,2.0789,2.078,2.0763,2.0781,2.0768,2.0794,2.0804,2.0812,2.0816,2.0822,2.0833,2.0721,2.072,2.072,0,0,2.1111,2.1076,2.1076,2.1041,2.1016,2.101,2.095,2.0946,2.0941,2.087,2.0869,2.0841,2.0803,2.0812,2.0814,2.0791,2.0844,2.0818,2.0825,2.0824,2.0828,2.0839,2.0848,2.0723,2.0723,2.0722,0,0,2.1184,2.1157,2.1168,2.1144,2.1106,2.107,2.1073,2.1024,2.1003,2.1001,2.0948,2.094,2.0915,2.089,2.0874,2.0938,2.0897,2.0934,2.0986,2.0993,2.1002,2.1009,2.1031,2.104,2.0938,2.0938,2.0938,0,2.124,2.123,2.1178,2.1178,2.1164,2.1101,2.1111,2.1089,2.1048,2.1039,2.1014,2.0981,2.0952,2.0954,2.0969,2.0959,2.0959,2.0939,2.1005,2.1012,2.1018,2.1038,2.1047,2.0942,2.0942,2.0941,2.0941,0,2.13,2.1294,2.1307,2.127,2.1257,2.1262,2.121,2.1203,2.1169,2.1136,2.1133,2.1096,2.107,2.1067,2.1033,2.1065,2.1051,2.1016,2.0971,2.1034,2.1052,2.1059,2.0949,2.0947,2.0946,2.0945,0,0,2.1424,2.1358,2.1364,2.1346,2.13,2.1293,2.1295,2.127,2.1265,2.1239,2.1238,2.1218,2.1186,2.1168,2.113,2.1137,2.1188,2.1101,2.1099,2.1118,2.1219,2.1246,2.1256,2.1162,2.1163,2.1164,2.1222,0,2.1488,2.1488,2.1441,2.1454,2.1447,2.1387,2.1388,2.1359,2.1328,2.1317,2.1281,2.1268,2.1227,2.1215,2.1219,2.1182,2.1208,2.1177,2.1159,2.1159,2.117,2.1265,2.1293,2.135,2.1229,2.123,2.1231,0,2.1562,2.1541,2.1554,2.1507,2.1502,2.1504,2.1477,2.1468,2.1434,2.141,2.1391,2.1348,2.1345,2.1303,2.1297,2.1277,2.1267,2.1247,2.1248,2.1244,2.1199,2.1263,2.1367,2.1375,2.1241,2.1241,2.124,0,2.165,2.1625,2.1629,2.1615,2.1561,2.1564,2.1541,2.1505,2.1493,2.1469,2.1461,2.1437,2.1424,2.1405,2.1357,2.1331,2.1357,2.1311,2.1336,2.1337,2.1344,2.1344,2.1447,2.1338,2.1338,2.1338,2.1338,0,2.1726,2.1736,2.1668,2.167,2.1679,2.1625,2.1634,2.1605,2.1574,2.1569,2.1515,2.1511,2.1448,2.1436,2.1399,2.1399,2.1393,2.1373,2.1363,2.1378,2.1381,2.137,2.1365,2.134,2.134,2.1339,2.1339,0,2.1826,2.1781,2.1781,2.173,2.1717,2.1726,2.1681,2.1681,2.1646,2.164,2.1636,2.1581,2.1565,2.1515,2.1486,2.146,2.1471,2.1452,2.1484,2.1477,2.1505,2.1503,2.1604,2.1614,2.1501,2.1502,2.1503,0,2.1877,2.1884,2.1833,2.1827,2.1807,2.1796,2.1784,2.1731,2.172,2.1681,2.1685,2.1665,2.1646,2.1622,2.1579,2.1556,2.1535,2.1572,2.1531,2.1546,2.1535,2.1535,2.1535,2.1581,2.1583,2.1584,2.1585,0,2.1973,2.195,2.1935,2.1913,2.19,2.1879,2.1855,2.1853,2.1792,2.1783,2.1766,2.1751,2.1722,2.1702,2.1672,2.1647,2.1606,2.1599,2.1603,2.1618,2.1636,2.1626,2.1507,2.1596,2.1595,2.1594,2.1594,2.1593,2.2049,2.2052,2.2017,2.2002,2.1979,2.1958,2.1955,2.192,2.1906,2.1878,2.1847,2.1834,2.1798,2.1754,2.1732,2.172,2.1698,2.1705,2.1706,2.1709,2.1715,2.1638,2.1714,2.1714,2.1714,2.1713,2.1713,0,2.2142,2.2116,2.2103,2.2072,2.206,2.2024,2.1995,2.1987,2.1977,2.1948,2.193,2.191,2.1891,2.1846,2.1822,2.1821,2.1801,2.1816,2.1815,2.181,2.1737,2.1735,2.1832,2.1832,2.1832,2.1832,2.1832,2.1832,2.2188,2.2191,2.2164,2.2154,2.2128,2.2115,2.2102,2.2082,2.2058,2.2039,2.2023,2.1995,2.1959,2.1932,2.1912,2.1899,2.1892,2.1913,2.1894,2.1827,2.1815,2.1804,2.1802,2.1912,2.1912,2.1968,2.1969,2.1969]}]]